User: anonymous   Login
Location: Unspecified
(0.0000°N, 0.0000°E)
Time: 05:57:08
(UTC+00:00)
Language:

PLEIADES 1B - Orbit

View from above orbital plane
View from above orbital plane
View from above satellite
View from above satellite

Ground track
Ground track

The orbit data is extracted from the following two-line orbital elements,

1 39019U 12068A   16044.76800224  .00000206  00000-0  54051-4 0  9990
2 39019  98.1756 120.8856 0001333  84.6590 275.4765 14.58565959170373
Epoch (UTC): 13 February 2016 18:25:55
Eccentricity: 0.0001333
inclination: 98.1756°
perigee height: 697 km
apogee height: 699 km
right ascension of ascending node: 120.8856°
argument of perigee: 84.6590°
revolutions per day: 14.58565959
mean anomaly at epoch: 275.4765°
orbit number at epoch: 17037

The dashed part of the orbit path shows where the satellite is in the earth's shadow,  

DLR